[[{"header":{"parameterUnit":"m.s-1","parameterCategory":1,"la1":30.2991,"la2":30.254,"lo1":-89.0895,"lo2":-89.0444,"dy":0.0017,"dx":0.0017,"nx":28,"ny":28,"refTime":"2023-10-27T21:00:00:Z","depth":0,"parameterNumber":2,"parameterNumberName":"U-component_of_WINDS"},"data":[0,0,0,0,0,0,0,0,0,0,0,0,0,0,0,0,0,0,0,0,0,0,0,0,0,0,0,0,0,0,0,0,0,0,0,0,0,0,0,0,0,0,0,0,0,0,0,0,0,0,0,0,0,0,0,0,0,0,-2.5734,-2.5735,0,-2.5839,-2.584,-2.5841,-2.5862,-2.5862,-2.5861,-2.586,-2.5965,-2.5969,-2.5972,0,0,0,0,0,0,0,0,0,0,0,0,0,-2.555,-2.5554,-2.5733,-2.5735,-2.5736,-2.5839,-2.584,-2.5842,-2.5862,-2.5861,-2.586,-2.586,-2.5964,-2.5968,-2.5973,0,0,0,0,0,0,0,0,0,0,0,0,0,-2.564,-2.5555,-2.5733,-2.5759,-2.5762,-2.5838,-2.584,-2.5842,-2.5863,-2.5861,-2.586,-2.5859,-2.5963,-2.5968,-2.5973,-2.603,0,0,-2.599,-2.5992,0,0,0,0,0,0,0,0,-2.5635,-2.5647,-2.5754,-2.5757,-2.5761,-2.5836,-2.5814,-2.5905,-2.5863,-2.5824,-2.586,-2.5859,-2.5923,-2.5932,-2.5954,-2.6035,-2.604,-2.599,-2.5993,-2.5996,-2.5997,0,0,0,0,0,0,0,-2.5629,-2.5642,-2.5775,-2.5755,-2.576,-2.5765,-2.5777,-2.5831,-2.5879,-2.5828,-2.583,-2.5842,-2.5925,-2.5949,-2.5957,-2.6041,-2.599,-2.5995,-2.5998,-2.6,-2.6176,-2.6178,0,0,0,0,0,0,-2.5618,-2.5637,-2.5772,-2.5778,-2.5694,-2.5769,-2.5782,-2.5813,-2.5879,-2.5888,-2.5843,-2.5842,-2.594,-2.595,-2.596,-2.6032,-2.5996,-2.6001,-2.6004,-2.6175,-2.6177,-2.6178,0,0,0,0,0,0,-2.5614,-2.563,-2.5768,-2.5708,-2.5726,-2.5774,-2.5809,-2.5816,-2.584,-2.589,-2.5899,-2.5858,-2.594,-2.5953,-2.6013,-2.6036,-2.6003,-2.6008,-2.6173,-2.6175,-2.6177,-2.6175,0,0,0,0,0,0,-2.5609,-2.5628,-2.565,-2.5709,-2.5729,-2.5818,-2.581,-2.5819,-2.5849,-2.585,-2.5907,-2.5915,-2.594,-2.6005,-2.6019,-2.6042,-2.6012,-2.6171,-2.6174,-2.6177,-2.6173,-2.6176,-2.6179,0,0,0,0,0,-2.5602,-2.5644,-2.5651,-2.5667,-2.5758,-2.582,-2.5831,-2.5859,-2.5851,-2.5874,-2.5906,-2.5913,-2.6032,-2.6011,-2.6026,-2.6052,-2.617,-2.6173,-2.6176,-2.6171,-2.6176,-2.6179,0,0,0,0,0,0,-2.5586,-2.5652,-2.5661,-2.5723,-2.5766,-2.5823,-2.5852,-2.5863,-2.5908,-2.5907,-2.5939,-2.5952,-2.601,-2.6038,-2.6014,-2.6112,-2.61,-2.6107,-2.6091,-2.6096,-2.6099,-2.609,-2.6016,0,0,0,0,0,-2.559,-2.5635,-2.5691,-2.5741,-2.5762,-2.5804,-2.5831,-2.585,-2.5895,-2.5913,-2.595,-2.5993,-2.604,-2.607,-2.6116,-2.6178,-2.6191,-2.6204,-2.6207,-2.6209,-2.6214,-2.625,-2.6256,-2.6189,-2.6189,-2.6189,0,0,-2.5598,-2.564,-2.5666,-2.5739,-2.5774,-2.5819,-2.5818,-2.5866,-2.5901,-2.592,-2.5979,-2.6008,-2.6058,-2.612,-2.6149,-2.6145,-2.6236,-2.6214,-2.6215,-2.6218,-2.6254,-2.626,-2.6265,-2.6191,-2.6191,-2.6191,0,0,-2.5636,-2.5673,-2.5718,-2.5754,-2.5808,-2.5836,-2.5847,-2.5904,-2.5924,-2.5985,-2.6,-2.6042,-2.6122,-2.6158,-2.6186,-2.6241,-2.6249,-2.6255,-2.6272,-2.6306,-2.6311,-2.6316,-2.6335,-2.6342,-2.626,-2.626,-2.626,0,-2.5638,-2.5708,-2.574,-2.5788,-2.582,-2.5842,-2.5888,-2.5921,-2.5987,-2.6008,-2.6003,-2.6106,-2.6141,-2.6212,-2.6225,-2.6248,-2.6262,-2.6247,-2.6308,-2.6313,-2.6318,-2.6337,-2.6344,-2.626,-2.626,-2.626,-2.626,0,-2.5709,-2.5758,-2.5788,-2.5853,-2.5888,-2.5935,-2.5974,-2.6006,-2.6023,-2.6051,-2.6113,-2.6157,-2.6213,-2.6232,-2.6247,-2.6305,-2.6301,-2.6302,-2.629,-2.6324,-2.6342,-2.635,-2.6261,-2.6261,-2.6261,-2.6261,0,0,-2.5736,-2.582,-2.583,-2.586,-2.5923,-2.5961,-2.601,-2.6066,-2.6093,-2.6138,-2.618,-2.6249,-2.6251,-2.6283,-2.6304,-2.6334,-2.6375,-2.6332,-2.6333,-2.6337,-2.6441,-2.6439,-2.6447,-2.6382,-2.6384,-2.6385,-2.6437,0,-2.578,-2.5868,-2.59,-2.5972,-2.6018,-2.6041,-2.6083,-2.6126,-2.6155,-2.6198,-2.623,-2.6279,-2.6278,-2.6298,-2.6329,-2.6363,-2.6396,-2.636,-2.642,-2.6422,-2.6405,-2.6456,-2.6454,-2.65,-2.6444,-2.6445,-2.6446,0,-2.5843,-2.5891,-2.5968,-2.6027,-2.6047,-2.6084,-2.6139,-2.618,-2.623,-2.6249,-2.6287,-2.6306,-2.6359,-2.6347,-2.6419,-2.6394,-2.6422,-2.6443,-2.6445,-2.645,-2.6434,-2.6461,-2.6516,-2.6522,-2.6458,-2.6457,-2.6456,0,-2.5854,-2.5938,-2.5995,-2.602,-2.609,-2.6116,-2.6147,-2.6196,-2.6228,-2.6276,-2.6297,-2.635,-2.6379,-2.642,-2.6453,-2.6442,-2.6523,-2.6514,-2.654,-2.6539,-2.6554,-2.6552,-2.6612,-2.6574,-2.6574,-2.6574,-2.6574,0,-2.5899,-2.5944,-2.6001,-2.6036,-2.6088,-2.6125,-2.6176,-2.6208,-2.6252,-2.6294,-2.6318,-2.6356,-2.6399,-2.6443,-2.647,-2.6526,-2.6539,-2.6556,-2.6562,-2.6553,-2.655,-2.6569,-2.6566,-2.6576,-2.6576,-2.6575,-2.6575,0,-2.5918,-2.5958,-2.6022,-2.6084,-2.6101,-2.6137,-2.619,-2.6225,-2.6257,-2.6309,-2.6324,-2.6373,-2.6426,-2.6465,-2.6534,-2.6552,-2.6612,-2.6619,-2.6595,-2.6598,-2.6621,-2.6618,-2.6694,-2.6705,-2.6661,-2.6662,-2.6662,0,-2.5943,-2.5979,-2.6046,-2.6076,-2.6107,-2.6155,-2.6189,-2.6227,-2.6261,-2.6322,-2.635,-2.6406,-2.6452,-2.6537,-2.6579,-2.6632,-2.6639,-2.6663,-2.6647,-2.6637,-2.6639,-2.6635,-2.6639,-2.6664,-2.6664,-2.6664,-2.6664,0,-2.5983,-2.6002,-2.6049,-2.6104,-2.6144,-2.6189,-2.6235,-2.6258,-2.6305,-2.6342,-2.6398,-2.6434,-2.6506,-2.656,-2.6619,-2.665,-2.6665,-2.667,-2.6678,-2.6668,-2.6652,-2.666,-2.6599,-2.6667,-2.6667,-2.6666,-2.6666,-2.6666,-2.6005,-2.6039,-2.6092,-2.6144,-2.6183,-2.6226,-2.6262,-2.6299,-2.6347,-2.6408,-2.6429,-2.6486,-2.6538,-2.6617,-2.665,-2.6696,-2.6695,-2.6707,-2.671,-2.6712,-2.6712,-2.6647,-2.6707,-2.6707,-2.6707,-2.6707,-2.6707,0,-2.6046,-2.6081,-2.613,-2.6193,-2.6235,-2.6248,-2.63,-2.6334,-2.6384,-2.6431,-2.6477,-2.6542,-2.6597,-2.6644,-2.67,-2.6728,-2.6737,-2.6742,-2.6739,-2.6746,-2.671,-2.6696,-2.6734,-2.6734,-2.6734,-2.6734,-2.6734,-2.6734,-2.6071,-2.6129,-2.6154,-2.6232,-2.6268,-2.6325,-2.6353,-2.6393,-2.6431,-2.6502,-2.6548,-2.6579,-2.6627,-2.6687,-2.6738,-2.6751,-2.677,-2.6773,-2.6787,-2.6752,-2.6748,-2.6745,-2.6732,-2.6777,-2.6777,-2.6819,-2.6819,-2.682]},{"header":{"parameterUnit":"m.s-1","parameterCategory":1,"la1":30.2991,"la2":30.254,"lo1":-89.0895,"lo2":-89.0444,"dy":0.0017,"dx":0.0017,"nx":28,"ny":28,"refTime":"2023-10-27T21:00:00:Z","depth":0,"parameterNumber":3,"parameterNumberName":"V-component_of_WINDS"},"data":[0,0,0,0,0,0,0,0,0,0,0,0,0,0,0,0,0,0,0,0,0,0,0,0,0,0,0,0,0,0,0,0,0,0,0,0,0,0,0,0,0,0,0,0,0,0,0,0,0,0,0,0,0,0,0,0,0,0,1.0373,1.0374,0,1.0473,1.0474,1.0475,1.0518,1.0518,1.0517,1.0517,1.0622,1.0625,1.0627,0,0,0,0,0,0,0,0,0,0,0,0,0,1.0222,1.0225,1.0373,1.0374,1.0375,1.0473,1.0474,1.0476,1.0518,1.0518,1.0517,1.0517,1.0621,1.0624,1.0628,0,0,0,0,0,0,0,0,0,0,0,0,0,1.0301,1.0225,1.0373,1.0408,1.0412,1.0473,1.0474,1.0476,1.0518,1.0518,1.0517,1.0517,1.062,1.0624,1.0628,1.0661,0,0,1.0642,1.0644,0,0,0,0,0,0,0,0,1.0297,1.0307,1.0402,1.0406,1.0411,1.0483,1.0459,1.0538,1.0518,1.0478,1.0517,1.0517,1.0576,1.0584,1.0603,1.0666,1.067,1.0642,1.0645,1.0647,1.0648,0,0,0,0,0,0,0,1.0291,1.0303,1.0413,1.0403,1.0409,1.042,1.0431,1.0475,1.0527,1.0481,1.0485,1.0496,1.0578,1.0599,1.0606,1.0672,1.0642,1.0646,1.0649,1.065,1.077,1.0771,0,0,0,0,0,0,1.028,1.0298,1.0409,1.0416,1.0352,1.0423,1.0436,1.046,1.0527,1.0537,1.0496,1.0497,1.0591,1.0601,1.061,1.0655,1.0647,1.0651,1.0653,1.077,1.077,1.0771,0,0,0,0,0,0,1.0276,1.0289,1.0405,1.0358,1.0373,1.0426,1.0453,1.0462,1.0483,1.0538,1.0548,1.0507,1.0592,1.0604,1.0649,1.0659,1.0653,1.0657,1.0769,1.077,1.0771,1.0743,0,0,0,0,0,0,1.0272,1.0288,1.0299,1.0358,1.0376,1.0441,1.0454,1.0464,1.049,1.0493,1.0551,1.056,1.0592,1.0642,1.0653,1.0665,1.066,1.0768,1.0769,1.077,1.0743,1.0742,1.0742,0,0,0,0,0,1.0266,1.0287,1.03,1.0313,1.0392,1.0442,1.0452,1.0488,1.049,1.0504,1.054,1.0559,1.0656,1.0646,1.0659,1.0672,1.0768,1.0769,1.077,1.0743,1.0743,1.0742,0,0,0,0,0,0,1.0229,1.0296,1.031,1.0351,1.039,1.0449,1.0466,1.0486,1.0525,1.0526,1.057,1.0583,1.0624,1.0653,1.0641,1.0709,1.0714,1.0717,1.0689,1.0688,1.0688,1.068,1.0664,0,0,0,0,0,1.0226,1.026,1.0316,1.0347,1.0366,1.0413,1.0436,1.046,1.0503,1.052,1.0559,1.0601,1.0641,1.0666,1.0706,1.0748,1.0762,1.0764,1.0763,1.0762,1.0765,1.0792,1.0793,1.0775,1.0775,1.0775,0,0,1.0219,1.0259,1.0278,1.0341,1.0374,1.041,1.0426,1.0463,1.049,1.0526,1.0571,1.0601,1.0651,1.0695,1.0716,1.072,1.0774,1.0764,1.0763,1.0766,1.0793,1.0795,1.0796,1.0776,1.0775,1.0775,0,0,1.0225,1.0258,1.0288,1.0322,1.0372,1.0404,1.0411,1.0467,1.0489,1.0535,1.0563,1.0597,1.0664,1.0699,1.0726,1.0748,1.0768,1.076,1.0757,1.0783,1.0784,1.0786,1.0795,1.0798,1.0763,1.0763,1.0763,0,1.021,1.0263,1.0301,1.0337,1.0364,1.0398,1.043,1.0461,1.0522,1.0541,1.0545,1.0632,1.0668,1.0722,1.0727,1.0747,1.0758,1.0753,1.0781,1.0783,1.0785,1.0794,1.0797,1.0761,1.0762,1.0762,1.0762,0,1.0244,1.0281,1.0299,1.0357,1.0387,1.0421,1.0465,1.0491,1.0513,1.0545,1.0593,1.0637,1.0688,1.0703,1.0725,1.076,1.0761,1.0772,1.0777,1.0785,1.0794,1.0798,1.076,1.076,1.0761,1.0761,0,0,1.0227,1.0308,1.0314,1.0342,1.0401,1.0431,1.0468,1.0517,1.0539,1.0581,1.0613,1.0671,1.0683,1.0713,1.074,1.0762,1.0779,1.0771,1.0772,1.0771,1.0823,1.0815,1.0818,1.0792,1.0793,1.0794,1.0819,0,1.0242,1.0306,1.0343,1.0393,1.0429,1.0464,1.0496,1.0537,1.0568,1.0604,1.0639,1.068,1.0691,1.071,1.0734,1.0771,1.079,1.077,1.0824,1.0826,1.0811,1.0823,1.0814,1.0835,1.0823,1.0824,1.0824,0,1.0266,1.0308,1.0362,1.042,1.0436,1.0464,1.0513,1.0547,1.0595,1.0617,1.0652,1.0679,1.0721,1.0723,1.0782,1.0768,1.0793,1.0815,1.0817,1.0824,1.0825,1.083,1.0843,1.0846,1.083,1.083,1.0829,0,1.025,1.032,1.0362,1.0384,1.0452,1.0471,1.0501,1.0549,1.0577,1.0621,1.064,1.0688,1.0715,1.0752,1.0793,1.0791,1.0849,1.0854,1.0869,1.0868,1.0879,1.0878,1.0896,1.0894,1.0894,1.0894,1.0894,0,1.0262,1.0294,1.0355,1.0381,1.0419,1.0462,1.0498,1.0531,1.0574,1.0608,1.0641,1.0672,1.0724,1.0762,1.0794,1.0839,1.0851,1.0871,1.0879,1.0868,1.0865,1.0884,1.0884,1.0895,1.0895,1.0895,1.0894,0,1.025,1.0292,1.034,1.0401,1.0418,1.0443,1.0496,1.0524,1.0557,1.06,1.0613,1.0666,1.0714,1.0758,1.0821,1.0843,1.0889,1.0899,1.0872,1.0876,1.0889,1.0887,1.092,1.0928,1.092,1.092,1.092,0,1.0255,1.0281,1.0345,1.037,1.0399,1.0438,1.0468,1.0512,1.0541,1.06,1.0621,1.067,1.0712,1.0787,1.0832,1.0882,1.0894,1.0902,1.0901,1.089,1.0895,1.0893,1.0897,1.0901,1.0901,1.0901,1.0901,0,1.026,1.028,1.032,1.0369,1.0403,1.0443,1.0485,1.0504,1.0556,1.0588,1.0637,1.067,1.0735,1.0785,1.084,1.0872,1.0896,1.0901,1.0907,1.0896,1.088,1.089,1.0871,1.09,1.09,1.09,1.09,1.09,1.0257,1.0283,1.0332,1.0377,1.0413,1.0452,1.0481,1.0519,1.056,1.0616,1.064,1.069,1.0741,1.0817,1.085,1.089,1.0896,1.0904,1.0906,1.0908,1.0906,1.0873,1.0901,1.0901,1.0901,1.0901,1.0901,0,1.0265,1.0299,1.034,1.0397,1.0433,1.0452,1.05,1.0529,1.0572,1.0617,1.0658,1.0716,1.0765,1.0815,1.0868,1.0891,1.0904,1.0903,1.0902,1.091,1.0898,1.0888,1.0893,1.0893,1.0892,1.0892,1.0892,1.0892,1.0273,1.0317,1.0343,1.0407,1.0441,1.049,1.0516,1.0553,1.0589,1.0651,1.0692,1.0725,1.0773,1.0829,1.0876,1.089,1.0908,1.0905,1.0922,1.091,1.091,1.091,1.0901,1.0908,1.0908,1.093,1.093,1.093]}]]